Ft Pierce, FL

2:55 AM EDT on June 26, 2017 (GMT -0400)
Saint Lucie County International

Weather History for KFPR - October, 2012

Change the Weather History Date:

Friday, October 26, 2012

  Actual Average Record
Temperature  
Mean Temperature 73 °F -  
Max Temperature 79 °F 82 °F 88 °F (1972)
Min Temperature 68 °F 63 °F 48 °F (2005)
Cooling Degree Days 8    
Growing Degree Days 23 (Base 50)    
Moisture  
Dew Point 68 °F    
Average Humidity 84    
Maximum Humidity 94    
Minimum Humidity 65    
Precipitation  
Precipitation 1.02 in - - ()
Sea Level Pressure  
Sea Level Pressure 29.58 in    
Wind  
Wind Speed 13 mph (North)    
Max Wind Speed 22 mph    
Max Gust Speed 37 mph    
Visibility 6 miles    
Events Fog , Rain    
Averages and records for this station are not official NWS values.
T = Trace of Precipitation, MM = Missing Value Source: NWS Daily Summary

Daily Weather History Graph

Daily Weather History Graph

Search for Another Location

Airport or City:

Trip Planner

Search our weather history database for the weather conditions in past years. The results will help you decide how hot, cold, wet, or windy it might be!

Date:

Astronomy

Oct. 26, 2012 Rise Set
Actual Time 7:28 AM EDT 6:41 PM EDT
Civil Twilight 7:04 AM EDT 7:05 PM EDT
Nautical Twilight 6:37 AM EDT 7:33 PM EDT
Astronomical Twilight 6:09 AM EDT 8:00 PM EDT
Moon 4:46 PM EDT 4:36 AM EDT
Length of Visible Light 12h 01m
Length of Day
11h 13m
Waxing Gibbous, 91% of the Moon is Illuminated
Oct 26
Waxing Gibbous
Oct 29
Full
Nov 6
Last Quarter
Nov 13
New
Nov 20
First Quarter

Hourly Weather History & Observations

Time (EDT) Temp. Dew Point Humidity Pressure Visibility Wind Dir Wind Speed Gust Speed Precip Events Conditions
12:53 AM 68.0 °F 64.9 °F 90% 29.71 in 10.0 mi North 5.8 mph - 0.02 in Rain Light Rain
1:53 AM 73.0 °F 64.0 °F 73% 29.70 in 10.0 mi NE 9.2 mph 16.1 mph 0.00 in   Overcast
2:53 AM 75.0 °F 66.9 °F 76% 29.66 in 10.0 mi North 10.4 mph 17.3 mph 0.00 in   Scattered Clouds
3:53 AM 71.1 °F 66.0 °F 84% 29.63 in 9.0 mi North 9.2 mph - 0.03 in   Mostly Cloudy
4:53 AM 73.0 °F 69.1 °F 87% 29.62 in 6.0 mi North 12.7 mph 20.7 mph 0.05 in Rain Light Rain
5:03 AM 71.6 °F 68.0 °F 88% 29.63 in 1.8 mi NNE 12.7 mph 23.0 mph 0.14 in Rain Heavy Rain
5:09 AM 71.6 °F 68.0 °F 88% 29.63 in 2.0 mi North 6.9 mph 23.0 mph 0.14 in Rain Light Rain
5:17 AM 71.6 °F 66.2 °F 83% 29.62 in 9.0 mi North 15.0 mph 23.0 mph 0.15 in Rain Light Rain
5:53 AM 71.1 °F 64.0 °F 78% 29.61 in 10.0 mi North 10.4 mph - 0.15 in   Overcast
6:53 AM 70.0 °F 66.9 °F 90% 29.62 in 2.5 mi NE 12.7 mph 27.6 mph 0.06 in Rain Rain
7:04 AM 69.8 °F 66.2 °F 88% 29.61 in 5.0 mi NNE 13.8 mph 24.2 mph 0.02 in Rain Light Rain
7:53 AM 71.1 °F 68.0 °F 90% 29.60 in 6.0 mi North 8.1 mph - 0.02 in Rain Light Rain
8:20 AM 73.4 °F 69.8 °F 88% 29.61 in 1.5 mi NE 16.1 mph 26.5 mph 0.08 in Rain Light Rain
8:26 AM 71.6 °F 69.8 °F 94% 29.60 in 0.5 mi ENE 19.6 mph 34.5 mph 0.19 in Fog , Rain Heavy Rain
8:31 AM 71.6 °F 69.8 °F 94% 29.60 in 1.0 mi NE 16.1 mph 34.5 mph 0.19 in Rain Light Rain
8:38 AM 71.6 °F 69.8 °F 94% 29.60 in 3.0 mi NE 12.7 mph 32.2 mph 0.20 in Rain Light Rain
8:46 AM 73.4 °F 69.8 °F 88% 29.59 in 1.8 mi NE 16.1 mph 34.5 mph 0.25 in Rain Heavy Rain
8:53 AM 72.0 °F 70.0 °F 93% 29.60 in 0.8 mi NNE 17.3 mph 31.1 mph 0.34 in Rain Heavy Rain
9:00 AM 73.4 °F 69.8 °F 88% 29.61 in 0.8 mi NNE 21.9 mph 33.4 mph 0.06 in Rain Heavy Rain
9:07 AM 73.4 °F 69.8 °F 88% 29.61 in 1.2 mi NE 13.8 mph 33.4 mph N/A Rain Rain
9:21 AM 71.6 °F 69.8 °F 94% 29.61 in 2.5 mi NE 15.0 mph 29.9 mph 0.14 in Rain Light Rain
9:28 AM 71.6 °F 69.8 °F 94% 29.60 in 5.0 mi NE 18.4 mph 32.2 mph 0.14 in Rain Light Rain
9:53 AM 73.9 °F 69.1 °F 85% 29.61 in 8.0 mi NNE 17.3 mph 27.6 mph 0.14 in Rain Light Rain
10:53 AM 75.0 °F 69.1 °F 82% 29.62 in 4.0 mi NNE 18.4 mph 32.2 mph 0.01 in Rain Light Rain
11:00 AM 73.4 °F 68.0 °F 83% 29.61 in 5.0 mi NNE 16.1 mph 32.2 mph 0.00 in Rain Light Rain
11:53 AM 75.9 °F 69.1 °F 79% 29.60 in 7.0 mi North 16.1 mph 29.9 mph 0.00 in Rain Light Rain
12:22 PM 75.2 °F 69.8 °F 83% 29.59 in 1.5 mi North 19.6 mph 31.1 mph N/A Rain Rain
12:25 PM 73.4 °F 69.8 °F 88% 29.59 in 4.0 mi North 16.1 mph 31.1 mph 0.08 in Rain Heavy Rain
12:53 PM 75.9 °F 69.1 °F 79% 29.58 in 8.0 mi North 15.0 mph 24.2 mph 0.09 in   Overcast
1:53 PM 78.1 °F 66.9 °F 68% 29.55 in 9.0 mi North 21.9 mph 34.5 mph N/A   Overcast
2:53 PM 78.1 °F 66.9 °F 68% 29.54 in 10.0 mi North 15.0 mph 34.5 mph N/A   Mostly Cloudy
3:26 PM 78.8 °F 66.2 °F 65% 29.53 in 10.0 mi North 17.3 mph 34.5 mph 0.00 in   Overcast
3:53 PM 77.0 °F 66.0 °F 69% 29.51 in 9.0 mi North 20.7 mph 33.4 mph 0.00 in   Overcast
4:53 PM 75.9 °F 64.0 °F 67% 29.52 in 9.0 mi North 17.3 mph 31.1 mph 0.01 in   Overcast
5:53 PM 75.0 °F 64.0 °F 69% 29.52 in 9.0 mi North 17.3 mph 28.8 mph 0.00 in   Overcast
6:53 PM 73.9 °F 66.0 °F 76% 29.52 in 10.0 mi North 20.7 mph 36.8 mph 0.00 in Rain Light Rain
7:53 PM 73.0 °F 66.0 °F 79% 29.53 in 10.0 mi North 13.8 mph 33.4 mph 0.00 in Rain Light Rain
8:53 PM 75.0 °F 64.9 °F 71% 29.53 in 10.0 mi NNW 11.5 mph 26.5 mph 0.00 in Rain Light Rain
9:53 PM 71.1 °F 66.9 °F 87% 29.53 in 10.0 mi WNW 13.8 mph 23.0 mph 0.01 in   Overcast
10:37 PM 69.8 °F 66.2 °F 88% 29.53 in 4.0 mi NNW 11.5 mph 20.7 mph 0.06 in Rain Rain
10:53 PM 69.1 °F 66.0 °F 90% 29.53 in 7.0 mi NNW 12.7 mph 20.7 mph 0.07 in Rain Rain
11:12 PM 69.8 °F 66.2 °F 88% 29.53 in 10.0 mi NW 13.8 mph 24.2 mph N/A   Overcast
11:31 PM 69.8 °F 66.2 °F 88% 29.53 in 5.0 mi NW 11.5 mph 20.7 mph 0.02 in Rain Light Rain
11:53 PM 70.0 °F 68.0 °F 93% 29.52 in 10.0 mi NW 10.4 mph - 0.02 in Rain Light Rain
11:59 PM 69.8 °F 68.0 °F 94% 29.52 in 10.0 mi NW 12.7 mph 18.4 mph 0.00 in   Overcast